Location: Mahannah Oil Field
(37.4664°N, 96.6003°W)
Time: 01:45:50
(UTC+00:00)

deb Explorer IX - Pass Details

Date: 24 January 2021
Orbit: 537 x 1102 km, 38.8° (Epoch: 25 February)

Event Time Altitude Azimuth Distance (km) Brightness Sun altitude
Rises 03:01:07 0° 277° (W) 3,451 ? -39.6°
Reaches altitude 10° 03:03:52 10° 279° (W) 2,417 ? -40.1°
Enters shadow 03:05:37 20° 280° (W) 1,764 ? -40.4°
Maximum altitude 03:09:31 80° 6° (N) 737 - -41.2°
Drops below altitude 10° 03:14:17 10° 94° (E) 2,046 - -42.1°
Sets 03:16:27 0° 95° (E) 2,885 - -42.6°
